• In United Kingdom
  • List of Countries
  • For 7 days
  • Water Temperature
  • Satellite Maps
  • Weather Map
  • Weather Widgets
  • user-avatar
    Login

    Hourly Weather Laszkar Gah

    Today, 19 February, Monday

    Time Temperature Precipitation Wind Pressure Humidity
    00:00 +20°C° 0 mm 4 mps 693 mmHg 24%
    01:00 +20°C° 0 mm 4 mps 692 mmHg 25%
    02:00 +19°C° 0 mm 4 mps 692 mmHg 25%
    03:00 +19°C° 0 mm 4 mps 692 mmHg 26%
    04:00 +19°C° 0 mm 4 mps 692 mmHg 27%
    05:00 +19°C° 0 mm 4 mps 692 mmHg 27%
    06:00 +17°C° 0 mm 5 mps 692 mmHg 27%
    07:00 +17°C° 0 mm 5 mps 692 mmHg 27%
    08:00 +21°C° 0 mm 5 mps 693 mmHg 24%
    09:00 +23°C° 0 mm 6 mps 693 mmHg 21%
    10:00 +26°C° 0 mm 6 mps 693 mmHg 18%
    11:00 +27°C° 0 mm 6 mps 693 mmHg 16%
    12:00 +29°C° 0 mm 5 mps 693 mmHg 14%
    13:00 +30°C° 0 mm 5 mps 692 mmHg 12%
    14:00 +32°C° 0 mm 5 mps 692 mmHg 12%
    15:00 +32°C° 0 mm 6 mps 692 mmHg 11%
    16:00 +32°C° 0 mm 6 mps 691 mmHg 10%
    17:00 +30°C° 0 mm 5 mps 691 mmHg 12%
    18:00 +28°C° 0 mm 4 mps 691 mmHg 14%
    19:00 +27°C° 0 mm 2 mps 691 mmHg 16%
    20:00 +26°C° 0 mm 3 mps 691 mmHg 17%
    21:00 +26°C° 0 mm 3 mps 691 mmHg 18%
    22:00 +25°C° 0 mm 4 mps 691 mmHg 19%
    23:00 +25°C° 0.1 mm 4 mps 691 mmHg 21%

    Tomorrow, 20 February, Tuesday

    Time Temperature Precipitation Wind Pressure Humidity
    00:00 +24°C° 0.1 mm 3 mps 690 mmHg 24%
    01:00 +22°C° 0.1 mm 3 mps 690 mmHg 26%
    02:00 +21°C° 0.4 mm 3 mps 690 mmHg 29%
    03:00 +21°C° 0.4 mm 3 mps 690 mmHg 32%
    04:00 +20°C° 0.4 mm 4 mps 690 mmHg 36%
    05:00 +20°C° 0.1 mm 4 mps 691 mmHg 36%
    06:00 +20°C° 0.1 mm 4 mps 691 mmHg 37%
    07:00 +19°C° 0.1 mm 5 mps 692 mmHg 37%
    08:00 +21°C° 0 mm 5 mps 692 mmHg 32%
    09:00 +23°C° 0 mm 5 mps 693 mmHg 27%
    10:00 +26°C° 0 mm 6 mps 693 mmHg 23%
    11:00 +26°C° 0 mm 6 mps 693 mmHg 20%
    12:00 +27°C° 0 mm 6 mps 693 mmHg 18%
    13:00 +28°C° 0 mm 6 mps 692 mmHg 16%
    14:00 +27°C° 0 mm 7 mps 692 mmHg 15%
    15:00 +27°C° 0 mm 7 mps 692 mmHg 14%
    16:00 +27°C° 0 mm 7 mps 692 mmHg 14%
    17:00 +24°C° 0 mm 7 mps 692 mmHg 15%
    18:00 +23°C° 0 mm 6 mps 692 mmHg 17%
    19:00 +22°C° 0 mm 5 mps 692 mmHg 18%
    20:00 +21°C° 0 mm 4 mps 692 mmHg 20%
    21:00 +20°C° 0 mm 4 mps 693 mmHg 22%
    22:00 +19°C° 0 mm 3 mps 693 mmHg 24%
    23:00 +18°C° 0 mm 3 mps 693 mmHg 26%

    Day after tomorrow, 21 February, Wednesday

    Time Temperature Precipitation Wind Pressure Humidity
    00:00 +18°C° 0 mm 2 mps 692 mmHg 28%
    01:00 +17°C° 0 mm 2 mps 692 mmHg 30%
    02:00 +16°C° 0 mm 2 mps 692 mmHg 30%
    03:00 +16°C° 0 mm 2 mps 692 mmHg 31%
    04:00 +16°C° 0 mm 2 mps 692 mmHg 32%
    05:00 +15°C° 0 mm 2 mps 693 mmHg 32%
    06:00 +15°C° 0 mm 2 mps 693 mmHg 32%
    07:00 +15°C° 0 mm 2 mps 694 mmHg 32%
    08:00 +17°C° 0 mm 2 mps 694 mmHg 28%
    09:00 +19°C° 0 mm 2 mps 695 mmHg 23%
    10:00 +20°C° 0 mm 2 mps 696 mmHg 19%
    11:00 +21°C° 0 mm 3 mps 695 mmHg 17%
    12:00 +22°C° 0 mm 3 mps 695 mmHg 15%
    13:00 +24°C° 0 mm 3 mps 695 mmHg 13%
    14:00 +23°C° 0 mm 4 mps 694 mmHg 13%
    15:00 +25°C° 0 mm 4 mps 694 mmHg 13%
    16:00 +25°C° 0 mm 4 mps 694 mmHg 12%
    17:00 +22°C° 0 mm 4 mps 694 mmHg 14%
    18:00 +21°C° 0 mm 3 mps 694 mmHg 16%
    19:00 +20°C° 0 mm 2 mps 694 mmHg 17%
    20:00 +19°C° 0 mm 2 mps 694 mmHg 19%
    21:00 +19°C° 0 mm 2 mps 694 mmHg 20%
    22:00 +18°C° 0 mm 2 mps 694 mmHg 21%
    23:00 +17°C° 0 mm 2 mps 694 mmHg 21%

    22 February, Thursday

    Time Temperature Precipitation Wind Pressure Humidity
    00:00 +17°C° 0 mm 2 mps 694 mmHg 22%
    01:00 +17°C° 0 mm 2 mps 693 mmHg 22%
    02:00 +16°C° 0 mm 2 mps 693 mmHg 22%
    03:00 +16°C° 0 mm 2 mps 693 mmHg 22%
    04:00 +16°C° 0 mm 3 mps 692 mmHg 22%
    05:00 +16°C° 0 mm 3 mps 693 mmHg 22%
    06:00 +16°C° 0 mm 3 mps 693 mmHg 22%
    07:00 +16°C° 0 mm 3 mps 693 mmHg 22%
    08:00 +18°C° 0 mm 3 mps 694 mmHg 19%
    09:00 +20°C° 0 mm 4 mps 694 mmHg 17%
    10:00 +22°C° 0 mm 4 mps 694 mmHg 14%
    11:00 +23°C° 0 mm 4 mps 694 mmHg 14%
    12:00 +25°C° 0 mm 3 mps 693 mmHg 13%
    13:00 +25°C° 0 mm 3 mps 693 mmHg 13%
    14:00 +26°C° 0 mm 3 mps 692 mmHg 13%
    15:00 +26°C° 0 mm 2 mps 692 mmHg 13%
    16:00 +26°C° 0 mm 2 mps 691 mmHg 13%
    17:00 +25°C° 0 mm 3 mps 691 mmHg 14%
    18:00 +24°C° 0 mm 3 mps 692 mmHg 15%
    19:00 +22°C° 0 mm 4 mps 692 mmHg 16%
    20:00 +22°C° 0 mm 4 mps 692 mmHg 17%
    21:00 +22°C° 0 mm 4 mps 692 mmHg 17%
    22:00 +21°C° 0 mm 5 mps 692 mmHg 18%
    23:00 +21°C° 0 mm 4 mps 692 mmHg 19%

    23 February, Friday

    Time Temperature Precipitation Wind Pressure Humidity
    00:00 +21°C° 0 mm 4 mps 692 mmHg 19%
    01:00 +20°C° 0 mm 4 mps 691 mmHg 20%
    02:00 +20°C° 0 mm 4 mps 691 mmHg 22%
    03:00 +19°C° 0 mm 4 mps 691 mmHg 23%
    04:00 +18°C° 0 mm 4 mps 691 mmHg 25%
    05:00 +18°C° 0 mm 4 mps 691 mmHg 26%
    06:00 +18°C° 0 mm 4 mps 691 mmHg 28%
    07:00 +17°C° 0 mm 4 mps 692 mmHg 29%
    08:00 +19°C° 0 mm 4 mps 692 mmHg 27%
    09:00 +21°C° 0 mm 5 mps 693 mmHg 25%
    10:00 +23°C° 0 mm 5 mps 693 mmHg 22%
    11:00 +23°C° 0 mm 5 mps 693 mmHg 21%
    12:00 +25°C° 0 mm 4 mps 693 mmHg 19%
    13:00 +26°C° 0 mm 3 mps 692 mmHg 18%
    14:00 +26°C° 0 mm 3 mps 692 mmHg 18%
    15:00 +26°C° 0 mm 3 mps 692 mmHg 18%
    16:00 +26°C° 0 mm 3 mps 692 mmHg 17%
    17:00 +25°C° 0 mm 4 mps 692 mmHg 22%
    18:00 +23°C° 0 mm 4 mps 692 mmHg 27%
    19:00 +21°C° 0 mm 5 mps 692 mmHg 32%
    20:00 +20°C° 0 mm 5 mps 692 mmHg 39%
    21:00 +19°C° 0 mm 5 mps 692 mmHg 45%
    22:00 +19°C° 0 mm 5 mps 692 mmHg 51%
    23:00 +18°C° 0 mm 4 mps 692 mmHg 54%

    24 February, Saturday

    Time Temperature Precipitation Wind Pressure Humidity
    00:00 +17°C° 0 mm 4 mps 692 mmHg 56%
    01:00 +17°C° 0 mm 3 mps 692 mmHg 59%
    02:00 +16°C° 0 mm 3 mps 692 mmHg 60%
    03:00 +16°C° 0 mm 3 mps 692 mmHg 61%
    04:00 +16°C° 0 mm 3 mps 692 mmHg 61%
    05:00 +16°C° 0 mm 3 mps 692 mmHg 61%
    06:00 +14°C° 0 mm 3 mps 693 mmHg 61%
    07:00 +14°C° 0 mm 4 mps 693 mmHg 60%
    08:00 +17°C° 0 mm 4 mps 694 mmHg 53%
    09:00 +19°C° 0 mm 5 mps 694 mmHg 46%
    10:00 +21°C° 0 mm 6 mps 695 mmHg 39%
    11:00 +22°C° 0 mm 6 mps 694 mmHg 36%
    12:00 +23°C° 0 mm 6 mps 694 mmHg 32%
    13:00 +25°C° 0 mm 5 mps 693 mmHg 28%
    14:00 +25°C° 0 mm 5 mps 693 mmHg 27%
    15:00 +26°C° 0 mm 4 mps 693 mmHg 25%
    16:00 +26°C° 0 mm 4 mps 693 mmHg 24%
    17:00 +25°C° 0 mm 4 mps 693 mmHg 26%
    18:00 +23°C° 0 mm 4 mps 693 mmHg 27%
    19:00 +22°C° 0 mm 4 mps 693 mmHg 29%
    20:00 +22°C° 0 mm 5 mps 693 mmHg 29%
    21:00 +21°C° 0 mm 5 mps 693 mmHg 30%
    22:00 +21°C° 0 mm 6 mps 693 mmHg 30%
    23:00 +21°C° 0 mm 6 mps 693 mmHg 30%
    Show more